Home > Weather > Kitzbühel > Past weeks

Flag for Austria Past Weather in Kitzbühel, Tyrol, Austria — Yesterday and Last 2 Weeks

Now
71 °F

Mild.


Feels Like: 75 °F
Forecast: 60 / 85 °F
Wind: 1 mph from Southwest

Location: Kufstein

Current Time: Aug 26, 2016 at 10:38:46 AM

Latest Report: Aug 26, 2016 at 10:00 AM


Visibility: N/A

Pressure: 30.09 "Hg (27.58 "Hg at 750m altitude)

Humidity: 64%

Dew Point: 58 °F

Location of KitzbühelLocation

Past Weather in Kitzbühel — Graph

°F

Kitzbühel Temperature Yesterday

Maximum temperature yesterday: 81 °F (at 3:00 PM)
Minimum temperature yesterday: 57 °F (at 6:00 AM)
Average temperature yesterday: 69 °F

High & Low Weather Summary for the Past Weeks

 TemperatureHumidityPressure
High82 °F (Aug 20, 3:00 PM)97% (Aug 13, 2:00 AM)30.47 "Hg (Aug 13, 2:00 AM)
Low49 °F (Aug 12, 1:00 AM)48% (Aug 16, 4:00 PM)29.79 "Hg (Aug 18, 2:00 PM)
Average65 °F78%30.12 "Hg
* Reported Aug 11 9:00 AM — Aug 26 9:00 AM, Kitzbühel, Weather by CustomWeather, © 2016

Note: Actual official high and low records may vary slightly from our data, if they occured in-between our weather recording intervals... More about our weather records

Advertising

Kitzbühel Weather History for the Previous 24 Hours

Scroll right to see more
 ConditionsComfort  
Time TempWeatherWind HumidityBarometerVisibility
9:00 AM
Fri, Aug 26
63 °FMild.1 mph86%30.11 "HgN/A
8:00 AM59 °FCool.1 mph92%30.13 "HgN/A
7:00 AM59 °FCool.1 mph92%30.13 "HgN/A
6:00 AM59 °FCool.1 mph92%30.11 "HgN/A
5:00 AM60 °FCool.1 mph92%30.10 "HgN/A
4:00 AM61 °FCool.1 mph91%30.09 "HgN/A
3:00 AM61 °FCool.1 mph92%30.09 "HgN/A
2:00 AM62 °FCool.No wind93%30.09 "HgN/A
1:00 AM63 °FMild.No wind92%30.09 "HgN/A
12:00 AM64 °FMild.No wind89%30.07 "HgN/A
11:00 PM
Thu, Aug 25
67 °FMild.1 mph82%30.07 "HgN/A
10:00 PM70 °FMild.1 mph75%30.06 "HgN/A
9:00 PM72 °FMild.2 mph67%30.05 "HgN/A
8:00 PM76 °FMild.2 mph59%30.01 "HgN/A
7:00 PM79 °FWarm.2 mph57%29.99 "HgN/A
6:00 PM81 °FWarm.2 mph56%29.98 "HgN/A
5:00 PM81 °FWarm.3 mph56%29.99 "HgN/A
4:00 PM81 °FWarm.3 mph56%30.00 "HgN/A
3:00 PM81 °FWarm.2 mph57%30.00 "HgN/A
2:00 PM80 °FWarm.2 mph54%30.01 "HgN/A
1:00 PM79 °FWarm.1 mph50%30.03 "HgN/A
12:00 PM76 °FMild.2 mph53%30.06 "HgN/A
11:00 AM73 °FMild.2 mph56%30.09 "HgN/A
10:00 AM69 °FMild.2 mph64%30.11 "HgN/A
Weather by CustomWeather, © 2016

See weather overviewHow to use our weather pages